Location: NJAA Observatory
(40.6819°N, 74.8979°W)
Time: 16:49:44
(UTC-04:00)

Courier 1B - All Passes

Search period start: 25 September 2016 00:00
Search period end: 05 October 2016 00:00
Orbit: 963 x 1209 km, 28.3° (Epoch: 25 September)

Date Brightness Start Highest point End Pass type
(mag) Time Alt. Az. Time Alt. Az. Time Alt. Az.
25 Sep - 14:40:44 10° SSW 14:45:46 21° SSE 14:51:01 10° ESE daylight
25 Sep - 16:32:48 10° SW 16:39:03 31° S 16:45:35 10° ESE daylight
25 Sep - 18:26:18 10° WSW 18:32:31 28° S 18:38:56 10° SE daylight
25 Sep - 20:21:28 10° WSW 20:25:50 16° SSW 20:30:14 10° S visible
26 Sep - 13:48:02 10° SSW 13:52:14 17° SSE 13:56:35 10° ESE daylight
26 Sep - 15:39:25 10° SW 15:45:23 29° S 15:51:39 10° ESE daylight
26 Sep - 17:32:34 10° WSW 17:38:49 30° S 17:45:19 10° SE daylight
26 Sep - 19:27:04 10° WSW 19:32:11 19° SSW 19:37:24 10° SSE visible
27 Sep - 12:55:54 10° S 12:58:45 13° SSE 13:01:40 10° SE daylight
27 Sep - 14:46:10 10° SW 14:51:46 26° SSE 14:57:39 10° ESE daylight
27 Sep - 16:38:57 10° WSW 16:45:08 31° S 16:51:36 10° SE daylight
27 Sep - 18:32:58 10° WSW 18:38:31 23° SSW 18:44:15 10° SSE daylight
28 Sep - 13:53:05 10° SSW 13:58:12 23° SSE 14:03:33 10° ESE daylight
28 Sep - 15:45:26 10° WSW 15:51:28 31° S 15:57:48 10° ESE daylight
28 Sep - 17:39:04 10° WSW 17:44:52 25° SSW 17:50:53 10° SE daylight
28 Sep - 19:35:03 10° SW 19:38:06 13° SSW 19:41:11 10° S visible
29 Sep - 13:00:12 10° SSW 13:04:41 19° SSE 13:09:19 10° ESE daylight
29 Sep - 14:52:02 10° SW 14:57:50 29° S 15:03:57 10° ESE daylight
29 Sep - 16:45:20 10° WSW 16:51:12 28° S 16:57:21 10° SE daylight
29 Sep - 18:40:15 10° WSW 18:44:30 16° SSW 18:48:49 10° SSE daylight
30 Sep - 12:07:40 10° S 12:11:12 15° SSE 12:14:49 10° SE daylight
30 Sep - 13:58:43 10° SW 14:04:14 27° S 14:10:02 10° ESE daylight
30 Sep - 15:51:42 10° WSW 15:57:34 29° S 16:03:43 10° SE daylight
30 Sep - 17:46:01 10° WSW 17:50:52 19° SSW 17:55:54 10° SSE daylight
01 Oct - 11:15:58 10° S 11:17:46 11° SSE 11:19:35 10° SE daylight
01 Oct - 13:05:32 10° SW 13:10:41 24° SSE 13:16:04 10° ESE daylight
01 Oct - 14:58:11 10° WSW 15:03:56 29° S 15:10:01 10° SE daylight
01 Oct - 16:52:02 10° WSW 16:57:15 22° SSW 17:02:42 10° SSE daylight
02 Oct - 12:12:31 10° SSW 12:17:12 21° SSE 12:22:01 10° ESE daylight
02 Oct - 14:04:43 10° SW 14:10:22 29° S 14:16:15 10° ESE daylight
02 Oct - 15:58:14 10° WSW 16:03:39 25° SSW 16:09:19 10° SE daylight
02 Oct - 17:54:02 10° SW 17:56:49 12° SSW 17:59:42 10° S daylight
03 Oct - 11:19:43 10° SSW 11:23:43 17° SSE 11:27:48 10° ESE daylight
03 Oct - 13:11:21 10° SW 13:16:47 27° S 13:22:27 10° ESE daylight
03 Oct - 15:04:34 10° WSW 15:10:04 26° S 15:15:48 10° SE daylight
03 Oct - 16:59:21 10° SW 17:03:15 16° SSW 17:07:17 10° SSE daylight
04 Oct - 10:27:17 10° S 10:30:17 14° SSE 10:33:18 10° SE daylight
04 Oct - 12:18:05 10° SW 12:23:16 25° S 12:28:37 10° ESE daylight
04 Oct - 14:10:59 10° WSW 14:16:29 28° S 14:22:13 10° SE daylight
04 Oct - 16:05:11 10° WSW 16:09:42 18° SSW 16:14:22 10° SSE daylight
